Skip Page Navigation
NASA JPL Caltech
NASA Logo - Jet Propulsion Laboratory + View the NASA Portal
+ Near-Earth Object (NEO) Program
Search JPL
JPL Home Earth Solar System Stars & Galaxies Technology
JPL Solar System Dynamics
BODIES ORBITS EPHEMERIDES TOOLS PHYSICAL DATA DISCOVERY FAQ SITE MAP
JPL Small-Body Database Browser
Search: [ help ]  
(2003 RS1)
Classification: Amor [NEO, PHA]          SPK-ID: 3159886
Ephemeris | Orbit Diagram | Orbital Elements | Physical Parameters | Close-Approach Data ]

[ hide orbit diagram ]
Orbit Diagram
Note: Make sure you have Java enabled on your browser to see the applet. This applet is provided as a 3D orbit visualization tool. The applet was implemented using 2-body methods, and hence should not be used for determining accurate long-term trajectories (over several years or decades) or planetary encounter circumstances. For accurate long-term ephemerides, please instead use our Horizons system.
Orbit Viewer

Additional Notes: the orbits shown in the applet are color coded. The planets are white lines, and the asteroid/comet is a blue line. The bright white line indicates the portion of the orbit that is above the ecliptic plane, and the darker portion is below the ecliptic plane. Likewise for the asteroid/comet orbit, the light blue indicates the portion above the ecliptic plane, and the dark blue the portion below the ecliptic plane.

Orbit Viewer applet originally written and kindly provided by Osamu Ajiki (AstroArts), and further modified by Ron Baalke (JPL).


Orbital Elements at Epoch 2456400.5 (2013-Apr-18.0) TDB
Reference: JPL 39 (heliocentric ecliptic J2000)
 Element Value Uncertainty (1-sigma)   Units 
e .6278338097127252 3.9063e-05  
a 2.807191683138847 0.000301 AU
q 1.044741834119908 2.3674e-06 AU
i 2.434476206062385 0.00010689 deg
node 174.0467764506124 0.00017677 deg
peri 161.7739068456474 0.00037216 deg
M 18.00265859503048 0.12011 deg
tp 2456314.590602266167
(2013-Jan-22.09060227)
0.55935 JED
period 1717.934216267204
4.70
0.27631
0.0007565
d
yr
n .2095540077094583 3.3704e-05 deg/d
Q 4.569641532157787 0.00048998 AU
  Orbit Determination Parameters
   # obs. used (total)      284  
   data-arc span      112 days  
   first obs. used      2003-07-31  
   last obs. used      2003-11-20  
   planetary ephem.      DE405  
   SB-pert. ephem.      SB405-CPV-2  
   condition code      5  
   fit RMS      .46174  
   data source      ORB  
   producer      Otto Matic  
   solution date      2011-Sep-14 19:51:34  

Additional Information
 Earth MOID = .0376266 AU 
 T_jup = 2.996 
[ show covariance matrix ]

Ephemeris | Orbit Diagram | Orbital Elements | Physical Parameters | Close-Approach Data ]

Physical Parameter Table
Parameter Symbol Value Units Sigma Reference Notes
absolute magnitude H 21.722 mag .46623 39 autocmod 2.5a

[ show close-approach data ]
Ephemeris | Orbit Diagram | Orbital Elements | Physical Parameters | Close-Approach Data ]
ABOUT SSD CREDITS/AWARDS PRIVACY/COPYRIGHT GLOSSARY LINKS
FirstGov 2013-Jun-19 23:28 UT
(server date/time)  
NASA Home Page
Site Manager:   Donald K. Yeomans
Webmaster  Alan B. Chamberlin